Weather History for Greenville Downtown, SC

Change the Weather History Date:

Monday, November 15, 2010

  Actual Average Record
Temperature  
Mean Temperature 54 °F -  
Max Temperature 61 °F 60 °F 72 °F (2011)
Min Temperature 48 °F 41 °F 25 °F (2014)
Degree Days  
Heating Degree Days 10    
Growing Degree Days 4 (Base 50)    
Moisture  
Dew Point 47 °F    
Average Humidity 76    
Maximum Humidity 94    
Minimum Humidity 49    
Precipitation  
Precipitation 0.03 in - - ()
Sea Level Pressure  
Sea Level Pressure 29.96 in    
Wind  
Wind Speed 3 mph (West)    
Max Wind Speed 9 mph    
Max Gust Speed -    
Visibility 9 miles    
Events Rain    
Averages and records for this station are not official NWS values.
T = Trace of Precipitation, MM = Missing Value Source: NWS Daily Summary

Daily Weather History Graph

Daily Weather History Graph

Search for Another Location

Airport:

Trip Planner

Search our weather history database for the weather conditions in past years. The results will help you decide how hot, cold, wet, or windy it might be!

Date:

Astronomy

Nov. 15, 2010 Rise Set
Actual Time 7:03 AM EST 5:24 PM EST
Civil Twilight 6:36 AM EST 5:50 PM EST
Nautical Twilight 6:06 AM EST 6:21 PM EST
Astronomical Twilight 5:36 AM EST 6:51 PM EST
Moon 1:54 PM EST (11/15) 1:20 AM EST (11/15)
Length of Visible Light 11h 14m
Length of Day
10h 20m
Waxing Gibbous, 69% of the Moon is Illuminated
Nov 15
Waxing Gibbous
Nov 21
Full
Nov 28
Last Quarter
Dec 5
New
Dec 13
First Quarter

Hourly Weather History & Observations

Time (EST) Temp. Dew Point Humidity Pressure Visibility Wind Dir Wind Speed Gust Speed Precip Events Conditions
12:53 AM 54.0 °F 35.1 °F 49% 29.97 in 10.0 mi Calm Calm - N/A   Partly Cloudy
1:53 AM 52.0 °F 36.0 °F 54% 29.96 in 10.0 mi Calm Calm - N/A   Scattered Clouds
2:53 AM 52.0 °F 37.9 °F 59% 29.96 in 10.0 mi Calm Calm - N/A   Overcast
3:53 AM 48.9 °F 39.0 °F 69% 29.96 in 10.0 mi SSE 4.6 mph - N/A   Mostly Cloudy
4:53 AM 52.0 °F 37.9 °F 59% 29.95 in 10.0 mi SW 3.5 mph - N/A   Mostly Cloudy
5:53 AM 50.0 °F 39.9 °F 68% 29.95 in 10.0 mi Calm Calm - 0.00 in Rain Light Rain
6:43 AM 51.8 °F 39.2 °F 62% 29.97 in 10.0 mi Calm Calm - 0.00 in   Mostly Cloudy
6:53 AM 52.0 °F 39.9 °F 63% 29.96 in 10.0 mi Calm Calm - 0.00 in Rain Light Rain
7:53 AM 52.0 °F 39.9 °F 63% 29.98 in 10.0 mi Calm Calm - 0.00 in   Overcast
8:31 AM 53.6 °F 42.8 °F 67% 29.99 in 10.0 mi WSW 3.5 mph - N/A   Overcast
8:41 AM 53.6 °F 42.8 °F 67% 29.99 in 10.0 mi Calm Calm - N/A   Overcast
8:53 AM 53.1 °F 42.1 °F 66% 29.98 in 10.0 mi Calm Calm - N/A   Overcast
9:53 AM 55.9 °F 46.0 °F 69% 29.99 in 10.0 mi West 3.5 mph - N/A   Mostly Cloudy
10:06 AM 57.2 °F 46.4 °F 67% 29.99 in 10.0 mi West 3.5 mph - N/A   Mostly Cloudy
10:53 AM 61.0 °F 50.0 °F 67% 29.98 in 10.0 mi WSW 6.9 mph - N/A   Overcast
11:53 AM 61.0 °F 51.1 °F 70% 29.97 in 10.0 mi West 6.9 mph - N/A   Overcast
12:53 PM 60.1 °F 51.1 °F 72% 29.96 in 10.0 mi West 9.2 mph - 0.00 in   Overcast
1:53 PM 57.9 °F 52.0 °F 81% 29.96 in 10.0 mi West 9.2 mph - 0.00 in Rain Light Rain
3:16 PM 57.2 °F 53.6 °F 88% 29.97 in 10.0 mi WSW 5.8 mph - N/A   Overcast
3:53 PM 57.0 °F 54.0 °F 89% 29.98 in 8.0 mi SSW 4.6 mph - 0.00 in Rain Light Rain
4:05 PM 57.2 °F 53.6 °F 88% 29.98 in 7.0 mi SSW 5.8 mph - 0.01 in Rain Light Rain
4:08 PM 55.4 °F 53.6 °F 94% 29.98 in 7.0 mi SSW 4.6 mph - 0.01 in Rain Light Rain
4:16 PM 55.4 °F 53.6 °F 94% 29.97 in 6.0 mi Variable 3.5 mph - 0.01 in Rain Light Rain
4:53 PM 55.9 °F 50.0 °F 80% 29.95 in 10.0 mi NW 3.5 mph - 0.03 in Rain Light Rain
5:00 PM 55.4 °F 50.0 °F 82% 29.95 in 10.0 mi NNW 3.5 mph - 0.00 in Rain Light Rain
5:53 PM 55.0 °F 52.0 °F 89% 29.92 in 10.0 mi East 6.9 mph - 0.00 in   Overcast
6:53 PM 54.0 °F 52.0 °F 93% 29.92 in 10.0 mi NE 4.6 mph - 0.00 in   Scattered Clouds
7:53 PM 54.0 °F 52.0 °F 93% 29.94 in 7.0 mi Calm Calm - N/A   Mostly Cloudy
8:53 PM 53.1 °F 51.1 °F 93% 29.93 in 6.0 mi NNE 4.6 mph - N/A   Mostly Cloudy
9:53 PM 53.1 °F 50.0 °F 89% 29.92 in 10.0 mi NE 4.6 mph - N/A   Overcast
10:53 PM 53.1 °F 50.0 °F 89% 29.91 in 10.0 mi NE 5.8 mph - 0.00 in   Overcast
11:53 PM 53.1 °F 50.0 °F 89% 29.90 in 10.0 mi NNE 8.1 mph - N/A   Overcast